Location: Northcutt
(34.7304°N, 84.4305°W)
Time: 03:53:24
(UTC+00:00)

Vanguard 2 - Pass Details

Date: 11 October 2022
Orbit: 553 x 2933 km, 32.9° (Epoch: 05 December)

Event Time Altitude Azimuth Distance (km) Brightness Sun altitude
Rises 23:24:07 0° 277° (W) 5,874 14.1 -4.1°
Reaches altitude 10° 23:28:41 10° 265° (W) 5,174 13.7 -5.0°
Maximum altitude 23:40:21 25° 218° (SW) 4,491 12.0 -7.4°
Drops below altitude 10° 23:53:16 10° 171° (S) 5,702 11.9 -10.1°
Sets 23:58:49 0° 160° (SSE) 6,570 12.1 -11.2°
